H-2A R/B (38341 NORAD) Tracking and Keplerian Element Data

This shows tracking and keplerian element data for the satellite.

Feedback or suggestion? Click here.




ElementValue
Catalog38341
NameH-2A R/B
Epoch Orbit65293
Epoch Day160.20209775
Epoch Year2024
RAAN71.1758
Inclination98.4251
Eccentricity0.0049344
Argument of Perigee236.3501
Mean Anonmoly123.3002
Mean Motion14.88588229
Decay Rate3.741E-05
L11 38341U 12025E 24160.20209775 .00003741 00000+0 39964-3 0 9992
L22 38341 98.4251 71.1758 0049344 236.3501 123.3002 14.88588229652934



Live tracking and technical data element details for H-2A R/B (NORAD 38341). H-2A R/B can be tracked NOW for your location showing map with azimuth and elevation plus other details from your city location.







IsCatalogInMostPopularTable: catalog: 38341, numindb: 863
Update: records affected: 1



GetName: 38341 H-2A R/B

Hit Count: updated at: Tue, 17 Sep 2024 12:09:07 GMT